Weather Roundup
Issued by NWS

Home | Current Version | Previous Version | Text Only | Print | Product List | Glossary On
Versions: 1 2 3 4 5 6 7 8 9 10 11 12 13 14 15 16 17 18 19 20 21 22 23 24 25 26 27 28 29 30 31 32 33 34 35 36 37 38 39 40 41 42 43 44 45 46 47 48 49 50
854
NZUS93 KARX 251610
HRRWXR

CURRENT HOURLY OBSERVATIONS ACROSS
MUCH OF THE UPPER MISSISSIPPI VALLEY
NATIONAL WEATHER SERVICE LA CROSSE WI
1000 AM CST SAT FEB 25 2017


...SOUTHEAST MINNESOTA...


CITY           SKY/WX    TMP DP  RH WIND       PRES   REMARKS
ROCHESTER      SUNNY     14   6  70 NW21      29.91R WCI  -4
ROCHESTER/MAYO FAIR      16   5  62 W14G23    29.92S WCI   1
WINONA         SUNNY     19   9  63 NW13      29.94R WCI   7
AUSTIN         SUNNY     16   7  67 NW14G23   29.94S WCI   1
ALBERT LEA     SUNNY     18   9  68 NW10G17   29.96S WCI   6
DODGE CENTER   NOT AVBL
PRESTON        SUNNY     14   5  67 NW15G26   29.91S WCI  -1
OWATONNA       SUNNY     18   7  62 NW13      29.95S WCI   4
FARIBAULT      SUNNY     21   7  53 NW9G18    29.95F WCI  11
$$

...ELSEWHERE IN MINNESOTA...


CITY           SKY/WX    TMP DP  RH WIND       PRES   REMARKS
MINNEAPOLIS    SUNNY     21   3  45 NW10      29.95F WCI  10
INTNL FALLS    SUNNY     11  -1  58 W6        29.83F WCI   1
DULUTH         SUNNY     12   3  67 NW17G26   29.79F WCI  -5
RED WING       SUNNY     19   1  45 NW13      29.93S WCI   7
REDWOOD FALLS  SUNNY     24   9  52 NW8       30.00F WCI  15
MANKATO          N/A     23  10  57 NW14      29.98F WCI  11
WORTHINGTON    SUNNY     22  14  71 W10       30.00F WCI  11
FAIRMONT       SUNNY     22  11  62 NW15      30.00F WCI   9
$$

...SOUTHWEST WISCONSIN...


CITY           SKY/WX    TMP DP  RH WIND       PRES   REMARKS
LA CROSSE      SUNNY     20   8  60 NW21G29   29.90R WCI   4
PRAIRIE DU CHI SUNNY     20   9  62 W15       29.92S WCI   7
BOSCOBEL       MOSUNNY   20   8  60 NW9G21    29.90R WCI   9
LONE ROCK      PTSUNNY   19   8  62 NW14G26   29.88R WCI   6
PLATTEVILLE    SUNNY     18  12  79 W5        29.87S WCI  11
FORT MC COY    MOSUNNY   17   9  69 NW15G28   29.88R HAZE    WCI   3
CAMP DOUGLAS   PTSUNNY   14   7  73 NW14      29.84R WCI  -1
MAUSTON-NEW LI CLOUDY    15   8  72 NW14G21   29.84R HAZE    WCI   1
VIROQUA        PTSUNNY   17   9  69 NW13      29.84R WCI   4
WIS DELLS      CLOUDY    15   8  73 NW13G18   29.83R WCI   1
$$

...ELSEWHERE IN WISCONSIN...


CITY           SKY/WX    TMP DP  RH WIND       PRES   REMARKS
MILWAUKEE      FLURRIES  23  12  62 NW16G26   29.77R WCI  10
MADISON        FLURRIES  17   9  70 W12G22    29.82R WCI   4
GREEN BAY      LGT SNOW  20  15  81 W20       29.71R WCI   4
EAU CLAIRE     MIX PCPN  15   4  61 NW13      29.88R WCI   1
BLACK RVR FLS  CLOUDY    17   6  63 NE10G18   29.87R WCI   4
MEDFORD        CLOUDY    12   5  73 NW13G18   29.75R HAZE    WCI  -3
WAUSAU         CLOUDY    15   8  73 NW17G24   29.73R WCI  -1
WIS RAPIDS     CLOUDY    16   7  67 NW12      29.80S WCI   3
MARSHFIELD     FLURRIES  13   5  70 NW17      29.77R WCI  -4
RICE LAKE      SUNNY     16   3  56 NW7G18    29.88S WCI   6
$$

...NORTHEAST IOWA...


CITY           SKY/WX    TMP DP  RH WIND       PRES   REMARKS
WATERLOO       SUNNY     18   9  68 NW13      29.98R WCI   5
DUBUQUE        MOSUNNY   18   9  68 NW21G29   29.89R WCI   1
DECORAH        SUNNY     16   7  67 NW13G22   29.91R WCI   2
MASON CITY     SUNNY     16  10  77 NW18      29.99R WCI   0
CHARLES CITY   SUNNY     18   9  68 NW23      29.97R WCI   0
OELWEIN        SUNNY     18  12  79 NW26G33   29.95R WCI  -1
$$

...ELSEWHERE IN IOWA...


CITY           SKY/WX    TMP DP  RH WIND       PRES   REMARKS
DES MOINES     MOSUNNY   23  10  57 NW17      30.07S WCI   9
IOWA CITY      PTSUNNY   22  12  65 NW15G24   30.01S WCI   9
FORT DODGE     SUNNY     18  10  73 NW9       30.05S WCI   6
MARSHALLTOWN   SUNNY     19  10  68 NW20      30.02R WCI   3
CEDAR RAPIDS   MOSUNNY   19  13  77 NW23G31   29.97R WCI   2
$$

...NORTHERN ILLINOIS...


CITY           SKY/WX    TMP DP  RH WIND       PRES   REMARKS
CHICAGO-OHARE  FLURRIES  24  14  65 W16G25    29.82R WCI  11
CHICAGO-MIDWAY FLURRIES  24  13  62 W18       29.83R WCI  10
MOLINE         PTSUNNY   24  12  60 NW22G32   29.96R WCI   9
ROCKFORD       PTSUNNY   21  11  65 W23G31    29.87R WCI   5
PEORIA         PTSUNNY   24  13  62 NW18G25   29.96R WCI  10
$$

NOTE: "FAIR" INDICATES FEW OR NO CLOUDS BELOW 12,000 FEET WITH NO
SIGNIFICANT WEATHER AND/OR OBSTRUCTIONS TO VISIBILITY. WIND
SPEEDS ARE IN MILES-PER-HOUR.




USA.gov is the U.S. government's official web portal to all federal, state and local government web resources and services.